Theta_e
319 318 318 318 317 319 321 320 323 326 326 327 326 325 322 321 324 325 326 324 326 329 327 325 326 329 330 331 333 334 334 335 336 339 343 337 333 331 326 325 321 317 315 312 310 310 310 313 320 326 328 330 329 329 330 330 331 331 333 333 332 331 330 329 325 321 318 315 314 314 317 317 316 314 313 313 312 312 312 311 311 311 311 312 316 318 319 320 322 319 312 313 317 318 317 314 311
319 318 319 317 319 319 321 322 327 337 335 327 325 323 320 320 323 329 330 327 329 330 329 327 328 330 330 331 331 333 335 334 333 335 338 333 333 331 326 323 318 316 313 311 310 309 310 310 314 319 323 328 328 326 328 328 329 330 333 333 332 330 329 328 323 319 314 312 314 316 315 314 313 313 313 313 312 312 312 312 312 311 311 311 312 315 318 321 321 317 314 317 320 319 318 315 312
319 318 318 318 320 318 322 322 327 337 331 325 329 326 320 321 328 333 328 326 330 330 330 329 330 330 330 334 332 334 337 335 334 335 335 333 334 331 326 322 317 314 311 311 309 309 310 310 312 314 317 325 329 327 327 327 328 331 332 333 332 329 327 325 321 315 312 312 315 316 313 311 312 312 312 312 312 312 312 312 312 312 311 311 312 314 319 322 320 318 319 319 317 316 317 314 311
319 318 318 320 319 320 329 329 333 334 324 324 326 324 324 326 331 327 322 327 331 328 328 330 332 331 332 337 334 333 336 335 335 334 334 334 333 328 324 320 316 313 311 310 309 309 309 310 311 313 315 321 328 327 325 327 328 330 331 332 330 327 324 320 317 314 314 314 313 312 311 312 312 311 312 312 312 311 312 312 312 312 312 311 311 313 318 321 319 319 320 320 318 317 317 314 312
318 318 318 320 319 322 330 327 330 329 323 328 321 321 331 331 328 321 323 332 329 324 328 332 334 332 333 336 334 334 336 335 335 334 334 334 330 324 322 319 315 312 311 310 309 309 308 311 312 316 318 318 325 324 323 328 328 330 330 329 327 324 319 315 314 313 318 319 314 311 314 314 312 311 312 311 312 311 311 312 312 312 312 312 311 312 316 319 318 317 317 317 316 315 313 314 314
317 319 318 319 320 318 324 321 323 328 330 331 321 327 334 326 323 321 326 330 326 323 327 331 332 332 334 335 334 335 335 335 334 333 334 332 327 323 322 317 315 313 311 310 309 309 309 312 313 320 322 320 326 325 326 330 328 328 329 327 324 321 315 313 312 312 321 323 318 314 316 318 315 311 311 311 311 312 312 314 314 313 312 312 312 314 316 319 318 315 316 317 315 312 312 313 314
317 319 318 319 319 319 329 328 329 334 327 322 322 331 329 318 320 323 324 324 323 322 327 330 329 332 335 334 335 335 335 335 334 334 334 330 326 323 320 317 315 313 311 310 309 309 309 311 313 319 322 324 329 328 329 330 327 326 325 323 319 316 312 312 312 312 320 323 321 320 321 322 319 313 310 311 312 314 315 315 314 313 312 312 311 314 317 320 319 317 317 316 314 312 312 313 313
318 319 318 321 324 324 332 329 332 335 320 313 316 323 321 318 321 321 320 321 323 324 329 331 328 333 335 333 335 335 334 335 334 334 332 328 325 323 320 318 316 314 312 311 310 309 309 310 312 315 319 324 327 329 330 327 324 321 318 316 313 311 310 312 313 315 319 321 322 323 323 319 316 313 310 310 311 314 314 313 312 312 312 311 310 311 316 319 318 317 315 313 313 313 313 313 313
318 319 318 321 325 326 332 327 324 325 322 317 314 318 319 320 321 319 320 320 321 325 330 330 325 331 334 332 334 334 335 336 335 334 332 328 325 323 321 319 318 316 313 311 310 309 308 309 311 314 317 322 325 328 328 322 319 317 314 311 310 309 310 313 315 314 316 319 322 323 321 314 312 316 316 311 309 311 311 311 311 312 312 311 310 309 312 316 318 317 314 313 313 313 313 313 314
319 320 317 321 326 322 324 329 326 321 321 318 314 318 320 320 320 318 320 319 321 327 330 327 325 330 334 333 334 334 335 335 335 335 333 329 325 324 324 321 320 318 315 312 310 310 309 309 310 313 316 320 324 326 323 317 315 313 311 309 309 309 310 312 313 311 312 317 321 322 319 313 312 319 321 313 309 309 309 310 310 310 311 311 310 311 311 314 317 316 314 313 313 313 314 314 314
319 319 317 324 329 321 321 331 335 331 323 317 316 318 321 320 319 317 318 320 324 328 326 326 329 332 333 333 334 334 335 335 335 335 334 330 325 326 327 325 322 318 315 313 311 310 310 309 310 311 313 316 320 320 316 314 312 310 309 309 308 309 310 311 310 310 311 313 316 319 318 315 313 314 317 313 309 309 308 309 309 309 310 310 310 311 312 313 314 314 314 313 314 314 314 314 314
319 320 326 330 328 323 324 328 333 337 330 323 321 319 321 320 318 318 319 322 324 324 324 326 331 332 332 333 334 335 335 335 335 335 335 332 326 328 329 327 324 318 316 314 312 311 310 310 309 310 310 312 315 315 313 312 310 309 309 309 309 309 310 310 309 309 310 310 311 314 314 314 313 311 311 310 309 309 308 309 308 309 309 310 311 312 313 313 313 313 314 314 314 314 314 314 314
319 321 329 327 323 324 323 324 327 330 330 326 321 320 321 320 318 318 318 321 322 323 325 326 327 329 332 333 333 335 336 335 335 335 335 333 329 328 329 329 325 319 316 315 314 312 311 311 310 310 309 310 311 311 311 310 309 309 310 309 310 310 310 309 309 309 309 310 309 309 310 310 312 313 311 309 309 308 308 309 308 309 309 310 311 313 313 314 314 314 314 314 314 314 315 315 315
318 320 326 323 320 326 324 324 324 322 326 324 318 319 321 320 319 318 319 322 323 323 324 326 325 326 331 333 334 335 335 335 334 334 335 335 332 331 330 330 326 320 318 317 316 314 312 311 310 310 310 310 310 309 309 309 309 310 310 310 310 310 309 309 309 309 309 309 309 308 309 308 310 312 311 309 309 309 308 308 308 308 309 310 311 313 314 314 315 315 315 315 315 315 316 316 316
318 318 326 329 322 324 324 322 321 323 328 323 318 319 320 320 319 317 319 323 324 321 322 327 326 324 329 333 334 332 334 335 334 334 335 335 334 333 332 331 326 320 320 319 318 317 315 313 311 310 310 310 310 310 310 309 310 310 310 310 310 309 309 309 309 309 309 309 308 308 308 308 308 308 309 308 308 308 308 308 308 308 309 310 311 312 313 314 315 316 316 316 316 316 316 317 317
319 317 324 329 322 321 321 319 320 324 325 318 315 318 321 319 318 317 318 320 322 320 322 328 326 324 324 324 325 328 332 334 333 334 334 335 334 333 331 330 325 321 321 321 320 320 318 316 313 311 310 310 310 310 310 310 310 310 310 310 310 310 310 310 309 309 309 308 308 308 308 308 308 308 308 308 307 308 307 307 308 308 308 309 310 311 312 314 315 315 315 316 316 316 317 317 317
317 320 326 326 323 322 322 321 320 323 325 316 312 316 320 319 316 317 318 318 319 320 324 328 326 324 324 321 322 328 332 333 333 333 333 333 333 331 331 330 325 321 322 322 322 321 320 320 317 314 313 312 312 311 312 312 313 313 313 313 313 313 312 312 311 311 310 310 309 309 309 308 308 308 308 307 307 307 307 307 307 307 308 308 309 311 312 313 314 315 315 315 316 316 316 317 317
319 326 326 323 326 326 323 324 319 319 322 315 312 315 319 319 316 317 318 318 320 323 325 327 327 324 325 324 323 328 333 334 332 332 332 331 331 331 330 329 325 321 323 322 323 322 322 321 320 318 316 315 315 314 315 315 316 317 317 317 316 316 315 315 314 314 313 312 312 311 310 310 309 309 309 309 308 308 308 307 307 307 307 307 308 309 310 312 313 313 314 314 315 315 315 315 315
320 323 323 326 330 324 318 319 314 315 317 314 313 314 317 318 316 317 319 321 323 328 328 326 328 326 326 326 324 328 332 334 332 330 331 331 331 330 329 329 324 322 322 322 323 322 322 322 322 321 319 318 317 317 318 318 319 320 321 321 320 320 319 318 318 317 316 316 315 314 313 313 312 312 312 311 311 310 310 309 308 308 307 307 307 308 309 310 311 312 313 313 313 314 314 314 314
320 317 322 328 323 318 316 316 314 315 316 314 314 314 314 315 316 318 319 322 325 328 327 325 327 327 327 327 324 327 332 334 332 330 331 331 330 328 328 326 323 322 322 322 322 322 322 322 322 322 322 321 319 319 319 319 321 322 323 324 324 323 323 322 321 320 319 319 318 317 317 316 316 316 315 315 315 313 312 312 311 310 309 308 307 307 308 309 310 310 311 311 312 313 313 314 314
318 316 323 323 314 315 318 316 315 315 314 314 314 314 314 314 316 318 318 323 326 324 322 322 323 324 326 328 325 327 332 334 332 330 330 331 330 327 326 324 323 322 321 321 322 321 320 320 322 323 323 323 322 321 320 320 321 323 324 325 326 325 325 325 324 323 322 321 320 320 319 319 318 318 318 318 318 317 317 317 315 315 314 312 311 310 310 310 311 311 312 313 313 314 315 315 315
317 317 319 316 312 315 316 315 315 313 314 314 313 314 316 314 316 317 318 322 324 321 319 319 318 319 323 325 325 326 330 333 333 330 329 330 330 329 327 326 325 324 322 322 321 321 320 319 320 322 323 323 323 323 322 322 321 323 324 325 326 326 326 326 325 325 324 324 323 323 323 321 321 320 320 320 320 320 321 321 320 320 319 318 317 316 315 315 315 316 316 316 317 317 317 317 317
319 319 315 313 312 313 314 314 314 313 313 313 313 315 315 314 315 316 318 319 319 318 318 318 318 319 321 323 324 325 327 330 331 329 327 328 330 329 328 328 328 326 325 323 322 322 321 320 319 321 322 323 324 324 324 324 323 324 324 325 326 326 326 325 326 325 325 325 325 326 325 324 324 323 323 322 322 322 323 323 323 323 323 322 322 321 321 321 321 321 321 321 321 321 321 321 321
317 318 314 312 312 311 313 313 312 313 313 314 314 315 314 314 316 315 317 319 318 317 317 317 319 319 321 324 324 323 322 324 327 328 326 327 328 328 328 328 328 328 327 326 325 323 322 321 320 319 321 322 323 324 324 324 324 324 324 325 325 325 325 325 325 325 326 326 326 326 326 326 326 325 326 325 324 324 325 326 326 326 326 325 325 324 325 324 324 324 324 325 325 325 325 324 324
312 314 312 311 313 313 313 313 313 313 312 313 313 313 314 314 314 313 316 318 318 317 317 317 318 318 321 324 324 324 323 322 325 327 327 326 326 327 327 328 329 329 328 327 327 325 324 323 321 319 319 321 322 323 324 323 324 324 324 324 325 325 325 325 325 325 325 325 326 326 326 327 327 327 327 326 326 326 326 327 327 327 326 326 327 327 326 326 326 326 326 326 326 326 325 325 325
311 312 311 310 313 313 313 313 313 313 313 313 313 313 313 313 313 314 315 317 318 317 316 317 317 318 320 323 325 325 324 323 324 325 327 326 326 327 327 328 329 329 328 328 327 326 326 324 322 320 319 320 322 322 323 323 323 323 324 324 324 325 324 325 325 324 324 324 325 325 326 326 326 327 327 327 327 327 327 327 327 327 327 327 327 327 327 327 326 326 326 326 325 325 325 325 325
313 313 312 311 312 312 312 313 313 313 313 312 314 314 312 312 312 315 317 315 317 317 316 316 317 318 319 322 324 325 324 322 322 324 327 327 326 326 326 327 328 327 327 328 327 327 327 326 323 321 320 320 321 322 322 323 323 323 323 324 324 324 324 324 324 324 324 324 324 325 325 325 326 326 326 326 326 327 327 327 327 327 327 327 327 327 327 326 325 325 325 324 323 323 324 324 324
313 314 315 314 312 312 312 312 312 312 313 313 313 312 311 311 313 315 316 315 316 317 316 316 316 318 319 321 323 325 324 323 324 325 326 325 324 324 325 325 326 327 327 327 327 327 327 326 324 323 321 321 322 322 322 322 323 323 323 323 324 324 324 324 324 324 324 324 324 324 324 324 325 325 325 326 326 326 326 326 326 326 327 327 327 327 326 326 325 324 324 323 323 323 324 324 322
315 314 317 317 313 313 313 311 312 312 313 313 312 313 313 312 313 315 314 315 316 316 316 316 316 318 319 321 323 323 323 324 326 324 322 322 322 322 322 323 325 326 327 327 327 327 326 326 325 324 323 322 323 322 322 322 322 323 324 324 324 324 324 324 324 324 324 325 324 324 324 324 324 324 324 325 325 325 325 325 325 326 326 326 327 327 326 326 326 325 324 323 323 323 323 323 321
318 315 315 318 317 316 313 310 312 312 312 312 312 316 319 315 313 314 315 315 315 315 315 316 316 318 319 320 321 322 322 323 324 322 321 322 322 322 322 322 323 325 326 327 327 327 326 326 326 325 325 324 323 323 323 323 323 323 324 324 324 324 324 324 324 325 325 325 325 324 324 324 324 324 324 324 324 323 323 324 324 324 324 325 325 325 326 326 325 325 324 323 323 322 323 323 321
322 321 317 318 322 324 315 310 311 312 313 311 312 317 320 317 313 313 314 314 314 315 315 315 316 317 319 321 320 320 321 322 321 320 320 321 322 323 323 323 322 323 325 326 327 326 327 326 326 325 325 325 324 324 324 323 323 323 324 323 324 324 324 324 324 324 324 325 325 324 324 324 324 324 325 324 324 323 322 322 322 322 322 322 322 323 323 324 324 323 322 322 322 322 323 321 321
322 326 326 321 322 324 316 310 310 312 313 310 312 316 317 316 313 313 313 313 313 314 315 315 316 316 318 320 320 320 320 320 320 320 321 321 322 322 322 323 323 322 323 324 325 326 326 326 326 325 324 324 324 324 324 324 323 323 323 323 323 324 324 324 324 324 324 324 324 324 324 324 324 325 325 325 324 323 321 321 322 322 322 321 321 321 321 322 322 322 321 321 320 319 319 319 320
322 323 326 321 319 320 315 312 310 310 312 310 312 316 318 315 311 312 312 312 313 315 316 316 316 316 317 319 320 320 320 320 320 320 320 320 321 321 321 322 322 322 322 323 324 325 326 325 325 325 324 323 324 324 324 323 323 323 323 323 323 323 324 324 324 324 324 324 323 323 324 324 324 324 324 324 324 324 324 322 322 322 322 321 321 320 320 321 321 320 320 320 319 318 319 320 320
324 321 321 318 316 315 314 315 311 309 311 312 312 313 317 315 310 310 311 310 313 315 316 316 317 317 317 318 319 319 319 320 319 318 318 318 319 319 319 320 321 322 322 323 324 324 325 325 325 325 324 323 323 323 323 323 323 323 323 323 323 323 323 324 324 324 324 324 324 323 324 325 325 324 324 324 324 325 325 324 323 322 321 320 320 320 320 321 320 320 319 319 319 320 321 322 321
327 322 319 317 315 313 312 313 312 310 312 313 314 313 314 314 311 311 310 310 313 316 316 316 318 317 318 318 317 318 318 318 317 316 316 316 317 318 318 319 319 321 322 322 323 324 325 326 326 325 325 324 323 323 323 324 324 324 324 324 324 323 323 324 324 324 324 324 324 324 325 326 326 326 326 326 325 325 325 325 325 324 323 322 322 322 322 321 320 321 320 319 321 322 323 323 323
326 321 318 316 314 314 312 312 312 311 312 313 314 314 314 313 313 312 311 310 311 315 317 317 317 317 318 318 318 317 317 317 316 315 316 316 317 317 317 318 318 319 320 321 322 323 325 326 326 326 325 324 323 323 323 324 324 324 324 324 323 323 324 324 324 323 323 323 324 325 326 327 327 327 326 326 325 325 325 325 325 325 324 324 324 324 323 322 320 322 323 321 321 323 324 325 324
319 317 317 315 314 313 312 312 311 309 311 314 313 314 314 313 314 312 310 310 309 311 314 316 317 317 318 319 318 316 316 316 315 316 316 316 317 316 316 317 318 319 319 320 321 322 323 325 326 325 325 325 324 322 322 322 323 323 323 323 322 323 325 325 325 323 322 322 323 325 326 326 326 326 326 326 325 325 325 325 325 326 325 325 325 323 323 323 322 324 326 323 321 322 324 324 324
316 317 317 315 314 313 312 311 311 309 310 313 313 313 314 313 313 311 309 309 310 310 311 314 315 316 317 317 317 316 315 315 315 316 316 316 317 316 316 316 317 317 317 318 319 320 321 323 324 324 324 324 323 321 321 320 320 320 321 321 322 323 324 324 324 324 324 323 323 324 324 325 325 325 324 324 325 326 326 326 325 325 325 324 324 323 324 323 322 324 325 323 322 322 323 324 325
320 320 318 317 315 314 314 312 312 311 310 314 314 312 313 312 312 310 307 308 311 311 311 313 314 314 315 316 316 315 315 315 315 316 316 316 316 316 316 315 315 315 315 316 317 317 319 320 322 323 324 323 321 321 320 320 319 320 322 321 323 324 324 324 324 325 326 326 326 325 324 324 323 323 325 325 325 324 324 325 323 323 324 323 323 324 322 321 323 325 323 321 321 322 324 326 326
322 321 320 318 315 313 315 313 312 312 311 312 313 313 313 312 312 311 308 309 311 311 312 312 312 313 314 315 315 315 315 315 315 315 315 315 315 315 315 314 314 314 314 315 316 316 317 318 319 321 321 321 320 320 320 321 323 324 325 325 324 325 324 324 325 325 325 326 327 326 325 324 324 323 324 325 324 323 325 327 324 324 325 323 323 323 321 321 323 324 321 320 322 323 325 326 326
322 320 320 318 314 311 312 312 311 313 312 310 311 314 314 313 314 313 311 309 308 309 310 311 311 312 313 313 313 314 315 314 315 315 314 314 314 314 314 313 313 313 313 313 314 314 315 315 317 318 319 319 319 319 321 324 327 328 328 328 326 325 324 323 324 324 323 323 324 324 323 323 324 324 323 322 322 323 326 328 325 326 326 323 321 321 322 322 322 322 321 322 323 323 324 326 326
322 319 318 316 313 309 309 311 311 314 316 313 312 315 317 319 318 315 313 311 309 309 308 309 311 312 312 312 313 314 314 314 314 314 314 314 314 314 314 313 313 313 313 313 313 313 313 313 314 316 318 318 318 319 321 325 328 329 329 328 326 324 322 320 320 321 321 322 322 322 321 320 322 322 324 326 324 323 324 323 322 325 327 325 321 320 323 325 324 325 325 325 324 322 321 321 321
323 320 316 313 312 311 310 311 311 314 317 315 312 313 318 321 320 318 316 313 312 311 308 308 310 311 311 312 314 314 314 314 315 315 314 314 314 314 313 313 313 313 313 313 313 313 313 313 313 314 316 317 317 318 321 325 328 329 328 327 325 323 321 319 319 320 321 322 322 322 321 320 321 321 324 326 323 322 324 323 324 326 328 327 321 320 325 328 328 328 327 327 326 322 318 317 317
322 319 316 313 312 312 311 311 312 315 316 314 312 312 315 316 316 319 315 312 313 312 310 309 308 310 312 313 314 315 315 315 315 315 314 314 314 313 314 314 313 313 313 313 314 314 313 313 313 314 315 315 317 318 320 323 325 326 326 326 325 323 321 320 321 322 324 324 323 322 321 321 321 322 322 321 320 325 329 328 327 325 324 324 322 324 326 325 325 325 323 322 321 319 316 315 314
318 315 315 313 312 312 311 310 312 313 313 314 313 313 314 315 318 319 313 313 315 313 313 311 308 311 313 314 315 315 315 315 315 315 315 315 314 314 314 314 314 314 313 313 313 314 314 313 313 314 314 315 316 318 320 322 324 325 326 326 326 324 322 323 323 324 324 324 323 323 323 322 322 323 322 320 321 326 329 327 325 324 323 323 325 325 322 319 319 318 317 317 316 315 314 312 311
314 313 315 315 316 316 313 312 312 311 313 314 314 313 314 316 321 319 312 314 315 314 314 310 308 311 313 315 316 315 315 315 315 315 314 315 314 314 314 313 314 314 313 313 313 313 314 314 314 314 314 315 315 317 319 320 323 325 326 327 326 325 325 325 325 326 325 325 324 323 323 323 323 323 320 319 320 321 322 323 322 322 322 322 322 320 318 317 316 315 315 315 313 312 311 310 310
312 315 317 317 318 318 319 318 314 313 315 315 314 314 313 315 318 317 314 315 315 314 315 312 309 310 313 315 316 316 316 315 315 315 314 315 315 314 314 313 313 314 313 314 313 313 313 313 314 314 314 315 315 316 317 319 321 323 325 325 326 326 326 326 326 326 326 326 324 323 323 323 323 321 318 318 319 318 319 321 321 320 319 318 317 315 314 314 313 313 312 311 310 310 309 308 307
314 317 318 318 318 317 319 318 314 316 317 315 315 314 311 313 316 316 315 315 316 314 315 316 312 310 314 316 316 316 316 315 315 315 315 315 315 315 315 314 314 314 313 314 313 313 313 313 313 314 314 315 315 315 316 318 319 321 323 323 324 325 325 326 326 326 327 326 325 324 323 323 322 319 319 320 319 317 318 319 318 317 316 315 314 312 312 312 311 311 310 309 309 308 307 306 305
316 316 317 319 318 317 319 317 315 317 316 312 311 311 311 313 315 316 315 314 314 310 311 314 312 311 315 315 315 314 314 314 314 315 315 315 315 315 315 315 314 314 314 314 313 313 313 313 313 313 314 314 314 315 316 317 318 320 321 322 323 324 325 326 326 326 327 326 325 324 322 323 321 317 319 320 317 316 317 316 315 314 313 312 312 311 311 311 310 310 309 308 306 305 305 304 303
315 315 317 319 318 318 320 318 317 319 317 312 308 309 314 316 315 316 316 314 312 308 307 310 310 311 314 313 313 313 312 313 313 314 314 315 315 315 315 315 315 314 314 314 313 313 313 313 313 313 314 314 315 316 316 317 318 319 321 322 323 324 325 325 326 327 327 326 325 324 322 322 320 317 320 320 316 316 316 314 313 312 312 312 311 311 311 310 309 308 306 305 304 304 304 303 302
314 314 315 317 318 319 320 319 319 319 317 313 309 312 319 320 318 315 310 308 309 308 309 310 310 311 312 312 312 313 313 313 313 314 314 314 314 314 315 315 315 314 314 314 314 313 313 313 314 313 313 314 315 315 316 316 318 319 321 323 325 326 326 327 327 326 326 325 324 323 322 321 319 320 321 320 317 317 316 313 312 311 311 312 311 310 310 309 307 306 305 304 304 303 302 301 300
313 312 313 315 318 319 318 317 316 315 316 314 311 316 320 318 316 311 306 307 308 307 308 309 310 311 311 312 312 313 314 313 313 314 314 313 312 312 314 314 315 315 314 314 314 313 314 314 314 313 313 314 314 315 315 316 317 319 321 323 325 327 327 328 327 325 324 324 323 323 322 320 320 320 320 319 318 317 315 313 312 311 311 311 310 310 308 307 305 304 304 304 303 302 301 300 299
314 312 313 314 316 316 314 314 312 311 315 316 313 315 316 314 314 313 313 313 312 309 307 306 309 311 311 311 313 313 313 313 313 314 313 312 312 312 313 313 314 314 314 314 314 313 314 314 314 314 314 314 315 315 316 316 318 319 321 323 325 326 327 327 326 323 322 322 323 323 322 322 321 319 318 318 317 316 313 312 311 311 311 310 309 308 306 305 304 304 304 303 302 301 300 299 298
314 314 314 312 313 314 313 314 314 312 314 317 316 314 313 314 317 317 314 314 315 313 310 307 307 309 310 312 313 313 313 313 313 313 312 312 312 312 313 314 314 314 314 314 314 314 313 314 314 314 314 314 315 315 316 317 318 319 320 323 325 326 326 326 324 321 320 322 323 323 324 323 321 318 317 317 315 313 312 311 311 311 310 309 308 306 304 304 303 303 303 302 301 300 299 299 298
312 314 314 313 315 316 313 313 315 315 314 317 318 313 312 315 318 318 313 314 318 316 314 312 309 308 310 312 313 313 313 313 312 312 313 312 313 313 314 314 314 314 315 314 314 314 314 314 315 315 315 316 316 318 318 318 319 319 320 322 324 326 325 324 323 321 320 321 322 324 323 322 319 318 317 315 312 311 311 311 310 310 309 308 305 304 303 303 303 303 302 301 300 299 298 298 297
309 310 312 314 315 316 316 314 315 316 315 317 317 314 315 316 317 320 316 315 318 315 314 315 311 308 310 311 312 312 312 313 313 312 313 313 314 314 314 314 314 314 314 314 314 315 315 315 315 316 316 317 317 318 317 316 316 316 316 319 322 323 323 323 322 321 320 320 321 322 320 319 318 317 315 312 311 311 311 310 310 309 307 305 303 303 302 302 302 301 301 300 299 298 297 297 297
311 312 312 313 313 315 317 314 314 315 315 316 315 314 320 322 316 316 315 316 319 316 314 313 308 308 310 311 312 313 312 313 313 313 313 313 314 314 314 314 313 314 313 313 314 314 314 314 314 315 315 315 315 314 314 313 312 312 313 315 317 318 320 322 322 321 320 320 321 320 318 318 318 315 312 311 311 311 310 310 309 307 305 303 302 302 302 302 301 300 300 299 298 297 297 297 296
313 312 313 313 313 314 316 315 315 313 312 317 315 312 321 325 314 311 312 315 315 310 309 308 307 308 310 311 312 312 313 313 313 313 313 314 314 313 313 313 313 313 312 313 313 312 313 313 313 313 313 313 313 312 312 312 312 312 312 314 315 316 319 321 321 320 320 320 320 319 318 318 315 312 311 311 311 310 310 309 307 305 303 302 302 302 302 301 300 299 298 298 297 297 297 296 296
Wind_Speed
3 2 1 2 3 0 1 3 0 3 4 2 2 0 2 2 1 2 2 0 0 2 1 6 11 15 7 4 7 6 5 4 4 4 3 7 17 21 17 15 13 11 9 8 9 10 12 14 13 10 11 12 9 10 8 7 7 6 6 4 3 3 4 3 2 3 2 4 6 8 10 12 11 11 12 11 11 11 10 10 9 9 8 8 9 10 9 9 10 10 10 10 10 11 11 12 13
3 1 1 2 3 1 2 3 2 3 5 2 3 2 2 2 1 5 6 3 3 6 11 13 14 12 7 9 9 7 5 2 3 6 7 15 22 20 17 14 12 10 9 8 8 9 10 11 13 11 11 13 11 10 8 7 7 6 6 5 4 4 4 3 2 3 4 7 8 9 11 11 11 11 11 10 10 10 10 10 9 9 8 8 8 9 9 9 10 11 11 11 11 11 11 12 13
3 1 1 1 3 2 1 3 2 1 4 1 4 3 2 1 5 6 6 6 12 16 16 13 10 7 7 8 6 3 3 2 5 10 14 21 22 19 18 14 11 10 8 8 9 9 9 10 12 11 11 14 12 9 8 8 7 7 7 6 5 3 2 1 2 4 6 8 9 10 11 11 10 10 10 9 9 9 9 9 9 9 8 8 8 10 9 9 10 11 11 11 10 10 10 11 12
3 1 1 1 2 3 2 4 2 4 1 2 2 4 3 4 7 5 5 12 18 13 8 7 6 5 4 5 4 3 3 4 6 12 19 22 21 21 19 15 12 11 9 9 9 9 9 10 11 11 11 14 13 10 8 8 8 8 8 6 5 2 1 1 2 4 6 9 9 10 11 10 9 9 9 9 9 9 9 9 9 9 9 9 9 9 10 9 10 11 11 11 11 11 10 11 12
3 1 1 2 1 1 3 3 2 4 1 4 0 4 6 6 6 5 9 17 15 4 3 5 4 5 6 5 3 2 5 7 9 15 21 21 21 22 18 15 13 11 10 10 10 9 9 9 10 10 10 12 11 9 9 8 9 9 7 6 4 3 1 2 3 6 7 9 10 10 10 9 9 9 9 8 9 9 9 9 9 9 9 9 9 9 9 9 10 10 10 10 10 10 10 11 12
3 1 1 2 2 1 2 1 1 1 4 5 2 5 6 6 9 9 13 15 9 2 2 4 5 8 7 5 4 5 6 7 12 19 22 22 22 20 17 15 13 11 11 10 10 9 9 9 10 10 10 12 11 10 11 10 10 9 8 6 4 3 2 3 6 7 7 9 10 10 9 8 9 9 8 8 8 9 9 9 9 10 9 9 9 9 9 8 9 9 9 10 10 9 10 11 12
4 2 2 3 3 3 2 2 3 3 4 5 4 5 5 9 13 13 11 8 5 3 3 6 11 11 6 6 6 4 3 6 14 19 21 23 22 19 16 14 12 11 10 10 9 8 8 8 9 10 13 15 13 12 11 10 10 9 8 6 5 4 3 4 8 8 6 8 9 9 8 9 9 9 8 7 8 9 9 9 9 9 8 8 8 9 9 8 9 9 9 10 10 10 10 11 13
5 2 2 3 2 4 3 1 3 3 3 3 4 5 6 14 18 13 8 6 5 4 6 11 11 7 3 4 3 4 6 8 14 18 21 23 21 18 16 14 12 11 10 9 8 8 8 8 8 9 13 16 15 13 11 10 10 9 7 6 6 5 5 5 7 8 6 7 8 8 8 9 9 8 8 7 8 8 9 9 8 8 8 8 8 8 8 8 8 9 9 9 9 10 11 12 13
6 2 2 3 1 3 2 2 3 3 3 4 4 5 7 15 17 11 7 4 4 7 12 12 4 3 6 4 4 8 10 11 15 18 21 21 20 18 16 14 10 8 8 8 8 7 7 8 7 8 11 14 15 12 10 10 9 8 7 7 6 6 5 4 6 8 7 6 7 8 8 8 8 8 7 7 8 8 8 8 8 8 8 8 8 7 8 7 8 8 8 9 9 10 11 12 13
5 2 2 3 2 1 3 3 2 3 4 5 5 4 9 15 13 9 6 3 5 10 13 8 1 6 10 7 7 10 11 14 18 18 19 20 20 18 16 13 9 7 7 8 8 7 7 7 7 7 9 11 13 11 9 8 8 7 7 7 6 6 4 3 7 7 7 6 6 8 8 7 7 7 7 8 8 7 7 7 8 8 8 8 8 8 8 8 8 8 8 9 9 10 10 12 12
2 1 3 4 3 0 3 4 4 4 5 5 3 4 10 15 11 6 5 4 7 10 12 6 3 12 12 6 7 11 13 16 17 16 19 20 20 18 15 13 10 7 6 8 8 7 7 8 7 7 7 9 10 9 7 7 7 7 6 6 5 5 4 4 7 7 6 6 6 7 7 7 7 7 7 7 8 7 6 7 7 7 8 8 8 8 8 8 8 8 8 9 9 10 10 11 12
2 2 3 3 2 3 3 2 4 5 6 4 1 5 10 15 9 5 6 6 9 8 9 7 8 14 9 2 8 12 15 17 15 13 19 21 20 18 14 12 10 8 7 8 8 8 8 8 8 6 6 6 7 6 5 6 6 7 6 5 4 4 5 5 6 6 5 5 5 6 7 7 7 7 7 7 7 7 6 6 7 7 8 8 9 9 9 9 9 9 9 9 9 9 10 11 11
2 2 4 2 3 2 3 2 4 5 5 3 3 7 11 14 8 7 9 8 9 7 7 8 13 14 5 3 9 14 16 17 15 14 19 22 21 19 15 12 10 10 9 8 8 8 8 8 8 7 6 6 7 6 6 7 6 7 6 6 5 5 5 6 6 6 5 5 6 7 7 7 7 8 7 6 6 6 6 6 6 7 7 9 9 9 9 9 9 9 9 8 9 9 9 11 11
1 3 3 2 1 2 4 1 3 2 4 5 4 9 12 12 8 9 10 7 10 10 7 10 15 11 4 5 9 17 19 17 18 16 20 21 21 19 16 14 12 12 10 9 9 8 9 9 8 8 7 8 8 8 8 7 6 7 6 6 5 5 5 6 6 6 6 6 7 7 7 7 7 8 8 7 6 6 6 6 6 6 7 8 9 9 9 9 9 8 8 8 9 9 10 11 11
2 2 3 3 3 1 3 1 1 2 4 4 5 11 13 11 7 9 12 9 10 12 8 10 17 6 4 9 9 21 23 19 21 19 22 22 20 20 18 17 14 14 12 11 10 9 9 9 9 8 8 8 8 8 8 7 7 7 7 6 5 5 5 5 6 6 6 7 7 7 7 7 8 8 8 8 7 7 6 6 5 6 7 8 8 8 8 8 8 8 8 8 9 9 10 10 11
4 2 4 3 2 1 3 1 2 2 4 4 7 12 12 10 9 7 11 11 8 12 10 11 19 8 7 10 5 20 26 21 23 22 23 23 22 21 19 19 17 16 14 13 12 11 10 9 9 8 8 8 8 8 7 7 7 7 7 6 6 6 6 6 6 6 7 7 7 7 7 7 7 7 8 8 8 7 6 6 5 5 6 6 7 7 7 7 7 7 7 8 8 9 9 10 10
5 2 4 1 2 2 3 3 3 2 5 4 7 14 11 6 10 8 9 12 8 12 13 11 21 14 8 8 5 21 27 23 25 24 25 25 24 24 22 22 21 19 17 15 14 12 11 10 9 9 9 8 8 8 8 8 8 8 8 7 7 7 7 7 7 7 7 7 7 7 6 7 7 7 7 7 7 7 6 6 5 5 5 5 6 5 5 6 6 6 6 7 7 8 8 9 9
5 2 2 1 3 3 4 6 6 4 2 3 8 14 12 6 10 10 8 9 7 12 17 12 18 18 10 7 8 22 28 25 28 27 28 27 26 25 24 25 24 22 19 17 15 13 12 10 10 9 8 8 8 9 8 8 8 8 8 7 7 7 7 7 8 8 8 7 7 7 6 6 6 7 7 7 7 6 6 5 5 4 4 4 4 4 4 4 5 5 5 6 6 7 7 8 8
4 2 1 2 5 3 4 5 7 4 3 2 8 11 12 9 12 14 7 6 7 9 14 12 15 20 14 10 11 22 28 27 29 29 29 28 28 27 26 26 26 24 21 19 17 15 13 11 10 9 8 8 8 8 8 8 8 8 7 7 7 7 7 7 7 8 7 7 7 7 6 6 6 6 6 6 6 5 5 5 4 4 3 3 3 3 4 4 4 5 5 5 6 6 7 7 8
1 1 1 3 4 4 7 7 7 6 5 2 7 10 11 10 13 15 7 5 7 9 14 15 17 22 19 13 14 24 29 29 30 30 30 29 28 27 27 27 26 24 22 20 18 16 15 13 12 10 9 8 7 8 8 8 8 7 7 6 6 5 6 6 6 6 6 6 6 6 5 5 5 5 6 6 6 5 5 5 4 4 3 3 3 3 3 4 4 5 5 5 6 6 7 7 8
0 1 3 3 1 2 8 9 8 8 7 4 5 7 8 11 14 15 11 5 5 15 23 22 21 22 22 18 17 25 30 30 31 31 31 30 29 28 27 26 24 23 22 21 19 18 16 14 14 12 11 10 9 8 8 8 7 7 6 5 5 4 4 4 4 4 5 4 4 4 3 3 3 4 4 5 5 5 5 5 4 4 4 3 3 3 3 3 4 4 5 6 6 6 7 8 8
0 3 6 4 1 3 9 10 6 6 5 5 4 5 8 11 14 17 17 9 9 19 26 25 22 20 21 21 20 27 32 31 32 33 33 31 30 29 27 26 25 24 23 22 21 18 16 15 15 14 13 12 11 10 9 8 8 7 6 5 4 3 3 2 2 2 2 2 2 2 2 2 2 2 2 3 4 4 4 4 4 4 4 3 3 3 3 3 4 4 5 5 6 6 7 8 9
1 5 7 5 5 5 11 13 10 9 5 5 5 7 10 11 11 17 22 20 17 17 20 22 22 19 20 21 22 27 32 33 34 34 34 33 32 30 28 27 26 24 23 22 21 19 18 17 16 16 15 14 13 12 11 10 9 8 7 6 6 4 3 2 1 1 1 1 1 0 1 0 0 1 1 1 2 2 2 3 3 3 4 4 4 4 4 4 4 4 5 5 6 7 7 8 8
2 4 6 7 9 9 13 16 15 14 10 10 8 8 11 14 9 10 23 30 21 12 11 16 22 19 19 22 23 26 30 32 33 33 33 32 31 30 28 27 24 23 23 22 21 21 20 18 18 17 16 15 15 14 14 13 11 11 10 9 8 7 5 4 4 4 4 3 2 2 2 2 2 2 2 2 2 2 2 2 3 4 4 5 5 5 5 6 6 6 6 6 6 7 7 8 9
1 2 8 12 14 15 16 18 18 15 12 12 10 10 11 16 10 6 23 31 23 15 8 11 21 22 21 24 25 25 29 31 31 32 32 31 30 29 28 27 26 25 24 23 22 21 20 19 19 18 17 16 16 16 16 14 13 13 12 11 10 8 7 6 7 6 6 5 5 4 4 4 4 3 4 4 4 3 3 3 4 4 5 6 6 7 7 7 7 7 7 8 8 8 8 10 10
1 4 13 15 16 18 18 16 14 12 11 9 9 10 9 13 9 9 23 26 22 20 11 10 19 23 23 24 26 27 29 30 30 31 32 31 31 31 30 29 28 27 24 23 23 21 21 20 20 19 18 18 17 17 17 16 15 15 13 12 12 11 9 9 10 9 8 8 7 7 7 6 6 6 6 6 5 5 6 5 5 6 6 7 7 8 8 8 8 8 8 9 10 9 9 11 12
4 8 15 14 16 18 14 12 11 9 9 9 10 7 6 9 6 9 18 18 22 23 16 13 17 22 24 24 26 28 28 29 29 30 32 32 32 32 31 30 30 27 24 24 24 22 22 22 20 18 19 19 19 18 17 17 16 15 14 14 13 12 12 12 12 11 11 10 9 9 9 9 8 8 8 8 7 7 8 7 7 7 8 9 9 9 9 9 10 9 9 10 12 11 11 12 13
4 9 11 14 19 18 12 11 12 8 6 9 11 3 2 5 4 14 15 11 19 23 20 17 18 22 23 24 26 28 29 29 30 31 32 32 32 32 31 31 30 27 26 25 22 22 23 22 20 19 19 19 19 18 17 17 16 16 16 15 14 14 14 14 14 13 12 11 11 10 10 10 10 9 9 10 10 10 10 10 10 10 10 10 11 11 11 11 12 11 11 12 13 13 13 14 16
4 8 5 10 15 14 10 9 9 6 3 6 8 1 3 4 10 20 16 11 17 21 22 19 19 22 23 25 26 28 30 31 33 33 31 30 30 29 29 29 28 27 26 23 22 22 22 21 21 20 20 20 20 18 17 16 16 16 16 16 15 15 15 15 15 14 13 13 12 11 10 10 9 10 10 10 11 11 11 11 12 12 12 12 13 13 13 13 13 13 13 14 15 14 15 17 18
1 5 3 4 6 8 7 5 6 6 3 5 9 3 6 8 18 20 13 14 18 20 22 21 20 23 25 26 27 28 30 32 33 32 30 30 30 29 28 27 26 26 25 24 24 24 21 20 21 22 22 22 21 19 19 18 17 17 17 17 16 16 16 15 14 14 14 14 13 12 11 11 10 10 11 11 12 12 12 12 13 13 13 14 14 15 15 15 15 15 15 16 16 16 17 19 20
2 3 1 1 1 5 5 2 5 5 4 8 9 3 6 8 18 19 14 16 19 21 23 23 23 25 27 28 27 29 30 32 31 30 30 31 31 30 29 28 26 26 25 25 25 24 22 21 21 22 23 23 23 22 21 19 18 18 18 17 17 16 16 15 15 14 14 14 14 14 13 12 11 11 12 13 13 13 13 13 13 14 14 15 15 16 16 17 18 17 16 17 18 17 17 19 21
2 2 2 2 4 5 7 4 6 5 3 8 8 3 7 8 13 16 16 16 18 23 24 24 25 26 28 30 29 30 30 31 31 31 32 32 32 32 31 30 28 27 26 26 26 25 24 23 22 22 23 24 24 23 22 20 19 19 19 18 17 17 16 16 15 15 15 15 16 15 14 13 12 12 12 13 13 14 14 13 13 14 15 16 17 17 17 17 17 18 18 19 20 18 17 18 18
1 2 1 1 2 2 6 5 7 5 1 5 5 2 4 6 8 10 15 19 19 22 24 25 27 27 29 31 31 31 31 32 33 32 32 32 32 32 31 31 30 29 27 27 27 27 26 25 24 23 23 23 24 24 23 21 20 20 19 18 17 17 17 16 15 15 16 16 16 15 14 13 12 12 12 13 13 14 15 14 14 14 15 15 16 17 17 17 18 18 18 18 19 16 14 15 14
2 2 1 2 2 2 5 5 3 3 0 3 4 4 6 6 6 5 10 19 21 23 26 27 27 28 29 31 32 33 33 35 34 32 30 30 31 31 31 31 31 31 29 29 29 28 28 27 26 24 23 23 23 23 23 22 21 19 19 19 18 18 18 16 16 17 17 17 17 16 14 13 13 13 13 13 14 14 15 16 15 14 13 13 14 14 14 16 16 15 15 14 12 12 12 13 15
3 3 2 1 2 4 6 5 3 2 1 4 5 5 10 11 11 12 9 13 20 24 24 24 25 28 29 31 33 34 35 36 33 29 27 28 29 30 31 31 31 31 31 31 30 30 30 29 28 26 25 24 23 23 23 23 22 21 21 20 20 20 19 18 17 18 18 18 18 17 15 14 15 14 14 15 14 14 14 16 16 14 14 14 14 15 15 15 13 10 12 11 8 9 12 14 17
7 6 5 4 5 6 6 6 5 2 3 6 7 6 10 11 12 16 13 11 19 22 19 19 23 27 29 31 34 35 36 36 31 28 28 29 30 29 30 30 31 31 31 32 32 32 32 31 30 29 28 26 24 24 24 24 23 23 23 22 22 22 20 19 18 19 18 18 18 17 16 16 16 15 15 15 15 15 14 16 16 15 16 15 15 17 16 14 11 10 11 10 9 10 12 14 16
8 6 6 6 5 7 5 4 5 3 2 7 7 8 11 12 11 13 12 10 14 19 19 22 25 27 30 32 34 35 36 33 29 29 32 31 30 30 30 31 31 32 32 33 33 34 33 33 32 32 30 28 27 26 26 25 25 24 24 24 23 22 20 20 19 19 18 18 18 18 18 17 17 17 16 15 15 15 15 16 16 16 16 16 16 16 15 14 12 11 12 12 12 12 12 12 14
7 5 4 4 6 6 5 5 6 3 1 5 5 6 11 13 11 10 8 8 13 20 23 27 30 29 29 30 33 34 34 32 31 32 33 31 31 31 31 31 32 33 32 32 33 33 33 33 34 33 31 30 29 27 26 26 25 24 23 23 21 20 19 19 19 18 18 18 17 18 18 17 17 17 15 15 15 15 16 16 16 17 17 18 17 15 15 14 11 11 13 13 12 14 13 11 14
5 4 3 3 3 3 6 6 5 2 2 5 4 5 10 12 12 10 10 12 17 23 25 28 30 28 28 31 33 35 34 33 33 34 32 31 31 31 31 32 32 32 31 32 32 32 33 34 34 34 33 33 31 28 27 26 24 22 21 21 20 19 18 18 17 17 18 19 19 18 17 16 16 15 14 15 16 16 15 14 14 14 16 17 16 15 14 10 8 10 12 11 11 13 14 13 15
5 4 3 3 1 1 5 2 4 3 2 3 3 4 7 9 10 9 13 19 21 22 23 25 26 28 32 34 34 34 35 35 35 33 32 32 32 31 32 32 32 32 32 33 33 33 34 34 35 34 34 33 32 30 28 25 23 21 21 20 20 20 19 19 18 19 19 19 20 19 18 17 16 14 15 16 17 14 12 13 13 12 13 15 14 14 10 5 7 10 8 9 12 14 15 16 14
6 7 6 5 2 2 4 4 6 5 2 1 2 5 6 7 9 9 10 15 18 21 21 21 24 28 33 34 33 34 36 37 36 34 33 33 32 31 31 31 31 33 34 33 33 33 33 34 34 34 34 34 32 30 28 26 24 23 23 23 23 23 22 22 21 21 20 19 18 18 18 17 16 17 15 14 14 13 13 16 14 12 14 13 11 9 5 3 6 8 8 10 12 15 15 15 15
5 7 9 8 5 3 5 6 7 5 4 2 1 5 6 4 6 9 7 6 10 16 17 22 27 28 30 32 34 37 37 37 37 35 34 34 33 32 30 31 32 34 34 33 32 33 33 32 32 33 34 33 32 30 28 27 27 26 26 25 25 25 24 24 23 21 20 18 16 15 16 15 16 16 14 14 15 12 12 14 12 12 14 12 9 8 7 9 10 11 12 12 12 16 16 16 17
3 5 9 9 7 4 4 6 3 1 4 4 1 4 7 6 6 9 7 6 9 11 12 20 28 28 28 31 34 37 38 38 37 36 35 34 34 32 31 30 30 32 32 32 32 33 32 32 32 32 33 32 31 30 29 29 29 28 27 27 26 26 25 24 22 20 18 16 16 16 17 16 16 15 15 17 15 9 10 12 11 13 14 12 12 12 13 14 14 14 15 14 15 19 19 18 19
3 6 12 11 9 5 3 5 4 3 4 7 3 2 5 7 8 6 2 5 9 10 10 14 23 27 28 31 33 36 38 39 38 36 35 34 32 31 30 29 28 28 28 30 32 32 32 32 32 32 32 32 31 31 30 30 29 29 28 28 27 27 25 23 21 20 18 17 17 18 18 17 17 16 16 16 11 9 14 15 15 16 15 14 14 13 14 14 13 14 16 16 18 20 19 18 16
1 6 12 11 8 3 1 2 4 2 3 7 7 3 3 8 7 2 1 5 9 11 11 12 19 27 30 33 35 36 37 38 38 37 35 33 31 30 28 27 27 26 25 28 30 31 31 31 32 32 31 32 31 31 31 31 30 30 29 29 29 28 25 24 23 22 20 19 19 19 19 18 17 17 17 16 13 14 18 17 17 16 14 15 15 14 15 15 14 15 16 16 16 15 13 10 9
3 8 10 7 7 4 1 2 2 0 1 10 9 4 4 7 6 2 2 5 8 9 8 10 20 30 33 35 38 38 37 38 38 37 35 33 32 30 28 28 28 27 26 26 27 29 31 32 32 32 32 32 31 31 31 31 31 31 31 31 30 29 27 25 24 23 22 21 21 21 21 19 18 18 18 16 15 17 19 18 17 17 16 16 15 15 15 14 14 14 13 11 9 7 5 5 6
5 7 9 8 6 5 3 2 2 1 6 11 11 7 5 6 5 5 5 6 8 8 7 9 17 27 33 37 40 41 40 40 40 39 38 36 33 32 31 30 29 28 27 27 27 28 31 32 33 33 32 32 31 32 31 31 32 32 32 32 31 29 28 27 26 25 23 22 22 22 22 21 19 18 17 16 15 15 17 17 16 16 16 15 13 12 11 9 9 7 5 4 3 4 5 6 7
7 5 6 5 2 3 3 2 3 2 8 7 5 6 5 8 5 3 6 6 7 9 8 8 12 22 32 37 40 41 41 42 42 42 42 40 38 36 35 33 31 29 29 29 29 27 29 31 33 34 33 32 32 32 32 32 32 32 32 31 30 29 28 27 26 25 24 23 23 23 23 21 20 18 17 17 16 12 13 14 12 12 12 11 9 7 6 4 2 1 1 2 3 4 5 6 6
7 6 6 5 1 1 1 2 2 5 7 2 1 4 4 10 7 5 10 8 8 12 13 15 17 22 29 31 31 31 32 35 38 40 42 43 42 40 38 35 32 30 29 28 28 27 28 29 32 33 33 33 33 33 33 33 32 32 31 30 29 28 27 27 26 24 24 24 24 24 23 22 21 19 17 17 15 10 10 9 8 9 8 7 6 4 3 2 1 0 1 2 3 4 4 5 6
6 6 7 6 3 3 5 4 2 5 5 2 1 2 4 9 6 9 14 12 14 18 19 21 21 22 25 23 21 21 23 27 30 33 36 38 40 41 39 36 33 31 28 27 28 28 28 28 30 32 32 32 33 33 33 33 33 32 31 29 28 27 27 26 25 25 25 25 25 25 23 22 21 18 16 16 14 10 9 8 7 7 6 5 5 4 3 2 1 0 1 1 2 3 4 5 6
6 4 4 3 3 4 5 4 3 4 4 3 1 2 5 6 4 7 12 14 16 17 19 21 21 24 24 23 21 20 21 23 25 28 30 32 35 38 38 36 33 31 30 28 28 29 29 28 29 30 30 31 32 33 33 33 33 31 30 29 28 27 26 26 26 26 26 24 23 22 20 20 19 17 16 17 13 11 9 8 7 7 6 6 5 4 3 2 2 1 1 1 2 3 4 5 6
4 4 3 1 3 3 2 3 3 2 2 3 2 3 5 4 6 8 6 10 14 17 19 19 22 26 25 25 25 23 22 21 23 25 25 26 29 32 34 34 32 32 32 31 30 30 30 29 29 29 30 31 32 32 33 32 31 30 30 30 29 28 27 26 27 27 25 22 21 20 19 19 19 17 18 17 13 11 10 9 8 8 7 7 6 5 4 4 3 2 1 1 2 3 4 6 7
3 5 6 4 3 4 2 1 1 2 3 4 3 6 6 3 9 9 4 6 9 12 16 18 25 27 23 26 30 27 24 21 21 22 20 21 24 27 29 30 31 31 32 32 31 32 32 31 31 31 31 32 32 33 32 32 31 31 30 30 30 30 29 29 28 26 23 22 21 21 21 20 19 19 17 15 12 11 11 10 9 9 8 7 7 7 6 5 4 3 2 2 3 4 5 7 8
7 7 7 4 2 2 2 1 2 1 4 4 2 7 6 3 7 6 1 6 8 8 11 15 21 22 21 29 33 30 26 22 20 20 19 19 20 22 24 25 27 28 29 30 30 32 33 33 33 33 33 34 34 34 34 33 32 31 31 31 30 30 29 29 28 24 23 24 24 23 23 22 21 19 15 13 12 12 12 12 11 11 10 9 8 8 6 5 4 3 2 2 3 5 6 8 8
6 5 8 6 2 3 4 3 2 3 4 4 2 4 4 5 6 3 4 9 9 9 10 9 14 19 24 31 32 28 25 22 19 18 18 19 19 20 22 23 24 25 26 27 28 29 31 33 34 34 34 34 34 34 34 33 32 31 31 30 30 30 29 28 26 24 24 25 25 26 26 24 21 17 14 13 13 13 14 14 13 12 11 10 9 8 7 5 4 3 2 3 5 6 7 8 9
2 2 6 4 1 4 5 4 2 3 3 4 3 3 3 6 6 4 7 9 8 10 10 8 13 22 27 29 28 24 23 21 18 17 19 20 21 21 22 22 23 24 25 26 27 29 30 32 34 34 35 35 35 35 34 33 32 31 30 30 29 29 28 27 26 26 26 26 26 27 25 21 18 16 15 15 15 15 16 15 14 13 12 11 9 8 7 5 4 3 3 4 6 6 7 9 9
3 4 6 4 3 2 1 2 2 2 3 3 3 3 5 6 5 8 11 10 10 11 9 8 13 19 21 23 23 22 21 21 19 18 20 21 21 22 21 22 23 23 25 27 29 31 32 33 34 35 36 36 36 35 34 33 32 30 29 29 29 28 27 27 27 27 27 26 26 24 21 18 17 17 17 17 18 18 18 16 15 14 12 11 9 8 7 5 3 3 4 5 6 7 8 10 10
7 5 5 6 6 3 2 5 3 2 2 3 2 4 7 6 4 8 11 10 8 6 5 7 13 15 16 18 18 18 18 21 21 19 20 20 20 20 19 20 21 23 25 27 29 31 32 34 35 36 36 35 35 34 33 32 31 29 28 27 27 27 27 28 28 28 27 26 24 21 19 18 18 19 19 20 20 20 18 16 15 14 12 11 10 8 7 5 3 4 4 5 7 8 9 10 12
Wind_Direction
215 221 76 71 33 7 331 358 54 2 62 85 309 220 234 217 185 181 169 208 271 327 141 136 142 151 146 147 164 130 109 143 156 130 169 164 145 149 151 150 149 146 144 143 143 152 172 179 171 166 178 180 176 172 157 146 149 154 153 153 152 147 118 91 82 73 87 107 108 109 102 102 102 101 101 103 104 103 105 104 99 91 88 88 85 84 82 77 74 69 69 70 68 66 63 62 63
223 230 46 69 30 355 280 7 68 341 42 33 291 183 262 300 161 190 192 203 155 116 114 119 127 137 115 117 122 99 98 99 132 120 135 146 143 147 148 149 147 144 145 145 142 149 164 171 173 170 175 179 177 172 165 161 164 166 160 157 155 140 122 95 87 96 111 120 112 107 105 105 102 101 98 99 103 104 104 102 99 94 86 82 83 86 83 74 70 68 69 72 71 68 63 59 58
233 233 38 48 12 7 305 25 78 65 59 325 276 241 286 183 201 207 201 173 132 116 112 112 107 107 95 99 92 94 136 133 141 128 135 145 147 149 149 148 146 144 144 143 139 144 157 161 168 171 172 177 177 170 167 169 167 167 163 161 161 140 126 113 98 102 109 120 115 107 109 108 104 101 100 95 94 96 94 94 96 94 87 81 81 85 82 71 67 67 67 69 68 66 63 57 56
231 212 42 19 351 8 56 43 124 117 74 234 289 275 239 188 213 220 178 150 135 118 107 109 82 75 76 91 96 103 145 156 162 146 145 151 152 149 147 147 146 144 141 139 137 142 154 158 164 168 170 176 177 169 165 171 168 169 175 175 178 181 166 140 124 117 113 120 116 106 105 105 101 98 96 90 83 83 84 88 91 90 84 80 79 80 79 67 64 65 64 65 64 63 58 51 53
228 214 328 327 346 24 87 66 114 104 226 199 30 276 230 202 207 194 157 153 150 118 98 133 100 97 90 85 109 141 159 160 167 158 151 154 152 145 144 144 143 142 140 136 139 145 152 154 153 155 161 166 167 165 167 173 173 177 185 183 184 196 179 144 148 138 121 116 115 109 105 101 99 94 89 85 80 78 79 82 82 82 79 77 75 77 79 68 62 63 62 62 63 59 50 47 48
211 162 40 38 76 72 112 104 137 193 233 173 173 256 227 203 184 164 155 162 178 227 177 169 143 128 98 71 94 123 146 166 169 162 152 151 149 144 142 142 142 140 139 137 141 148 149 149 145 147 150 146 148 162 173 177 178 181 183 182 185 191 179 159 150 140 119 107 110 111 107 101 101 99 92 84 83 80 78 80 79 79 77 75 75 77 79 69 62 64 62 61 58 50 44 44 43
185 160 58 85 69 32 97 164 207 231 237 172 180 239 220 186 170 157 157 170 193 210 196 161 137 123 100 94 105 106 128 173 163 154 149 149 148 144 143 140 143 140 139 141 142 147 146 144 145 154 150 144 154 166 174 179 177 178 178 178 181 177 175 161 144 135 114 103 105 106 104 99 101 106 103 88 83 84 81 82 81 81 80 78 76 77 79 70 63 64 61 58 52 43 39 38 37
178 179 48 99 45 28 86 191 237 213 231 214 222 247 211 174 165 161 167 174 166 185 164 146 132 109 129 140 127 129 127 148 151 148 149 151 149 145 144 140 140 140 140 140 139 142 141 140 145 159 156 155 162 162 172 181 174 174 171 168 167 160 170 162 141 134 113 102 100 99 99 97 100 104 107 96 83 81 80 82 84 83 80 77 73 73 76 69 62 64 61 54 46 38 35 35 34
176 185 56 86 78 36 33 303 270 242 255 262 268 252 195 171 167 165 168 173 163 168 160 152 130 111 161 154 135 144 137 146 150 149 152 154 152 147 142 137 135 138 138 136 137 138 137 137 144 158 160 162 163 164 177 175 166 168 163 158 158 156 167 155 125 122 111 102 99 101 99 100 103 98 101 102 91 82 77 80 85 82 77 76 72 69 74 70 64 63 58 51 42 35 33 33 33
173 165 121 84 96 20 330 289 272 269 259 265 274 223 175 172 170 165 160 158 174 164 163 169 90 137 151 145 142 151 151 153 154 154 158 159 155 150 143 137 135 139 140 136 137 137 137 137 142 154 160 164 167 174 177 163 157 159 158 156 155 157 158 123 102 104 108 102 99 103 104 111 114 100 92 98 100 94 85 81 83 79 75 75 70 68 70 69 66 63 55 48 39 31 31 31 31
168 77 119 84 80 168 252 252 271 276 276 293 284 185 171 175 167 159 149 136 170 162 166 182 138 140 136 142 160 159 159 160 162 161 163 165 161 155 147 141 141 149 150 141 139 139 138 138 139 147 158 166 175 181 165 150 153 153 157 155 150 157 142 114 105 101 105 102 98 97 98 106 109 106 94 95 103 102 95 85 82 76 73 72 68 66 65 64 61 60 53 45 36 28 28 30 31
181 36 89 98 137 195 211 231 273 288 304 321 173 173 175 178 171 170 161 152 168 168 179 183 160 148 122 151 176 166 165 164 169 170 167 170 168 162 155 149 150 159 156 145 141 142 140 140 139 139 149 160 171 177 159 149 150 148 149 148 143 145 130 113 109 103 101 98 96 92 89 91 96 108 107 105 104 99 95 85 81 72 70 69 66 64 61 61 55 54 50 42 35 28 27 29 34
175 134 93 127 177 167 167 212 273 315 319 274 181 176 179 181 191 195 168 158 170 172 192 184 166 157 125 173 180 178 173 165 167 173 171 172 174 171 167 161 162 167 158 150 144 143 143 139 139 135 140 145 149 151 151 152 146 142 142 143 139 130 120 109 107 103 100 96 99 101 96 91 90 97 99 103 102 101 95 84 84 73 70 68 65 64 59 58 53 50 47 40 35 30 26 25 30
117 151 113 140 102 114 160 244 281 317 285 259 186 173 179 185 206 204 173 162 185 182 186 187 175 163 145 167 188 186 173 166 165 169 172 172 177 177 175 172 172 173 161 155 149 145 143 138 140 136 139 141 142 144 145 149 142 141 140 142 140 129 121 112 111 109 108 109 110 111 103 93 85 84 84 83 88 102 102 87 86 74 67 65 64 64 61 59 54 50 46 41 37 33 29 23 24
81 113 89 116 57 15 188 267 232 142 244 240 178 178 178 189 204 204 191 185 196 191 181 184 182 179 185 178 195 185 168 164 165 165 172 171 177 178 179 179 178 177 166 161 155 149 145 138 141 138 143 142 141 147 145 147 143 143 144 145 141 133 129 119 120 118 118 116 112 110 100 92 86 85 83 79 82 95 100 90 84 75 67 62 62 62 62 63 57 52 46 42 39 36 32 26 21
51 84 69 101 108 231 194 200 155 115 252 224 172 180 175 195 201 200 205 197 197 193 187 182 187 211 220 188 188 177 164 161 165 165 170 171 176 178 180 183 182 180 172 169 163 155 151 143 143 140 143 143 143 148 146 149 145 144 143 143 137 130 128 120 121 119 118 115 109 107 100 97 93 91 92 89 89 91 93 87 80 72 66 62 60 59 58 60 59 53 46 41 38 36 32 26 19
19 60 66 82 161 206 200 188 189 170 257 246 181 182 170 192 200 197 203 199 207 195 188 188 195 213 226 198 166 171 165 161 167 167 171 174 178 181 183 184 183 183 178 175 171 162 158 151 149 145 145 145 145 146 146 146 141 139 135 134 131 125 121 115 112 108 106 108 107 109 106 106 103 101 100 98 95 92 89 83 79 72 66 64 60 58 56 53 55 49 43 36 30 29 24 19 13
12 75 99 208 184 193 190 186 200 175 283 251 195 188 178 184 186 181 185 199 214 195 192 197 203 210 215 206 180 174 169 165 171 172 174 177 181 184 185 185 184 186 183 180 178 173 167 161 157 153 151 149 147 146 146 144 138 135 132 130 126 118 116 110 106 103 100 101 101 105 106 106 105 105 102 99 97 91 87 82 77 73 66 64 60 54 51 47 45 41 35 28 20 16 12 8 5
36 88 132 222 200 214 227 212 204 187 325 240 192 194 193 199 181 176 185 196 188 187 202 210 214 214 212 210 192 180 174 171 176 177 178 180 182 185 186 185 186 188 189 185 183 181 176 173 169 163 160 156 154 153 150 148 144 140 135 129 121 115 111 107 106 104 101 98 96 96 97 101 102 102 101 97 96 92 90 85 76 73 66 61 55 45 40 38 34 29 26 20 13 7 3 360 357
42 66 231 237 213 253 277 264 236 231 293 264 192 198 205 210 187 182 186 179 187 204 208 211 219 217 214 213 196 187 181 176 180 181 183 184 184 186 187 187 189 191 193 191 188 187 185 183 180 176 173 170 166 163 162 159 155 150 144 136 127 118 109 106 104 102 102 98 96 95 93 102 105 106 107 103 101 98 94 88 82 74 65 59 47 32 28 29 26 19 16 11 7 4 0 357 355
49 119 210 238 185 283 294 293 280 264 272 267 204 187 212 212 190 186 175 153 228 229 216 215 222 217 212 211 197 191 187 182 185 186 187 187 187 188 190 191 192 194 194 195 195 194 193 192 190 187 185 183 181 178 173 172 171 166 159 154 147 136 123 112 104 98 98 97 98 95 96 107 112 115 113 112 108 103 92 82 81 73 63 56 41 30 21 18 19 13 8 4 360 357 355 355 353
194 241 253 284 358 262 301 318 313 294 273 248 200 183 214 200 194 195 183 182 228 231 226 223 227 222 216 213 198 192 192 188 188 190 190 190 191 192 193 194 195 196 197 199 200 200 200 200 198 196 195 194 193 191 189 191 190 186 184 180 179 171 156 136 119 107 96 102 102 92 106 110 109 114 105 110 109 100 86 72 66 53 41 39 30 21 11 4 5 2 358 353 349 348 349 348 347
221 256 279 318 340 286 301 313 308 305 281 234 220 224 215 186 203 207 198 212 224 233 237 229 227 226 224 216 200 194 195 194 193 193 194 193 195 196 196 198 198 200 202 203 205 205 205 206 206 203 203 202 202 202 202 205 204 204 207 206 205 204 206 202 196 201 211 201 167 154 170 106 48 68 28 49 76 72 60 53 43 20 11 8 1 356 349 342 338 338 338 336 335 334 334 334 334
198 251 307 325 331 314 314 315 304 301 278 258 251 234 212 193 206 212 213 222 222 234 252 232 224 223 222 214 205 202 200 200 199 197 198 198 199 201 202 203 203 205 207 208 208 209 210 211 212 212 210 208 209 210 211 211 211 214 218 220 219 219 225 230 233 234 236 241 239 240 259 286 300 311 318 325 337 346 359 5 358 352 348 342 339 332 328 327 324 324 322 320 323 324 323 320 319
172 277 325 325 320 314 321 313 297 297 280 267 246 226 218 207 205 221 227 225 219 227 250 234 221 218 218 212 209 207 204 204 203 202 201 202 204 205 207 208 207 208 210 211 211 212 212 214 217 218 217 215 214 216 218 218 218 220 222 226 228 230 235 236 239 242 242 244 245 248 255 268 279 287 290 297 309 311 312 323 326 324 324 325 324 318 317 318 316 317 317 319 320 318 320 320 320
51 324 321 319 314 314 320 308 293 295 277 253 227 230 228 209 210 249 240 231 224 226 240 239 218 215 216 212 211 209 208 207 207 206 205 205 206 208 210 211 211 211 212 214 214 215 214 216 218 220 222 221 220 219 221 223 224 226 227 229 231 237 240 242 244 247 250 250 248 248 248 251 257 262 269 278 286 291 296 303 304 304 307 307 306 305 306 306 306 308 312 314 310 309 318 320 320
50 343 321 312 312 316 314 295 287 292 275 237 215 229 227 196 188 247 242 231 226 225 232 236 219 216 216 213 213 211 212 213 212 209 208 208 209 210 212 214 215 214 214 215 216 216 216 218 219 220 222 224 225 223 223 225 228 230 232 233 233 238 241 244 249 251 255 257 254 250 247 247 251 256 261 268 273 276 283 287 287 291 294 292 290 291 292 295 298 302 305 304 303 310 319 314 309
36 4 338 318 317 318 300 274 273 270 274 239 213 218 236 171 188 236 235 224 222 221 226 229 219 217 216 215 215 214 216 216 214 212 211 212 211 211 212 214 216 215 216 216 216 218 220 221 222 221 222 225 227 227 227 227 230 232 235 236 236 238 240 244 250 254 258 259 256 252 251 251 253 259 261 264 267 267 271 274 275 278 279 281 282 282 282 287 292 296 298 299 303 311 313 309 306
24 38 22 323 320 314 288 263 253 226 253 232 188 224 272 190 225 234 232 226 219 216 222 225 218 215 214 215 215 216 217 216 215 216 217 217 215 215 215 215 216 216 218 217 218 221 223 225 226 226 225 227 229 229 231 231 232 234 236 238 237 237 239 243 247 252 256 256 253 250 252 253 255 261 264 266 265 264 266 267 269 270 269 272 275 277 278 280 284 288 292 296 300 304 304 305 308
78 66 78 338 330 305 285 258 222 194 222 190 159 229 266 230 234 230 224 225 217 213 220 222 218 214 212 214 215 217 218 217 219 221 222 221 221 221 220 220 218 219 220 220 221 223 224 227 229 230 230 230 232 233 233 233 234 235 237 238 238 238 240 242 244 246 251 252 250 250 252 254 257 262 265 268 269 268 268 267 270 270 271 272 273 276 277 277 277 279 286 291 295 300 302 306 310
131 84 103 85 264 271 295 290 195 182 211 180 157 233 261 247 242 229 219 221 216 215 219 222 221 216 213 213 215 218 219 221 224 226 225 225 225 226 225 224 222 222 222 222 224 226 227 230 233 234 234 234 235 236 236 236 236 236 237 237 238 240 241 241 241 242 244 247 248 249 250 253 256 261 266 270 272 272 274 276 278 279 279 279 279 279 280 282 283 283 285 288 291 294 297 305 309
103 181 195 157 206 261 306 296 201 201 223 174 157 229 259 269 256 235 224 221 216 218 220 221 221 217 215 215 215 218 221 223 226 227 227 227 228 229 229 228 227 225 224 224 225 227 230 232 235 237 236 236 235 237 239 239 238 236 237 236 237 240 242 242 241 241 240 241 243 245 247 251 256 262 269 275 280 283 285 285 286 286 285 285 288 291 290 288 288 290 291 293 295 297 302 310 312
51 188 187 160 215 296 314 295 215 220 279 182 187 230 257 279 269 236 222 221 217 219 222 221 220 220 218 217 217 219 221 223 225 226 226 227 229 230 232 231 230 229 227 227 227 228 230 231 235 238 237 236 236 236 238 239 237 237 238 238 238 239 242 242 242 243 240 238 240 243 246 252 258 263 268 273 280 286 288 292 295 293 291 292 297 304 306 301 297 298 301 302 304 309 317 322 326
46 51 40 348 340 332 298 313 267 218 90 221 216 226 244 264 283 265 221 217 214 218 224 223 221 221 220 220 220 221 222 224 225 225 225 227 229 230 232 233 232 232 231 230 231 232 232 233 236 239 240 238 236 235 236 237 236 236 238 239 239 239 240 242 245 245 243 242 243 244 248 256 262 266 272 274 275 279 284 292 298 301 301 301 303 310 320 321 312 311 318 319 314 318 325 332 339
148 140 122 292 264 242 252 285 288 195 227 233 201 222 253 261 274 276 255 220 216 221 225 226 225 224 222 223 223 224 225 227 227 227 227 228 230 231 232 233 233 232 232 232 233 235 236 237 237 240 242 240 237 236 235 235 235 234 236 236 236 235 235 238 242 245 245 247 248 250 255 261 265 269 274 274 273 275 277 283 291 300 303 305 311 311 320 328 323 322 334 336 326 320 327 334 335
157 157 167 191 228 242 244 259 263 235 243 237 207 214 247 253 258 261 256 230 223 230 236 235 233 229 226 224 225 226 228 230 230 229 230 231 232 233 233 234 234 233 233 233 234 235 237 238 239 239 240 240 239 236 233 232 231 231 232 233 234 234 235 237 241 245 246 248 252 255 257 260 262 263 266 270 274 277 278 281 289 297 298 301 307 304 308 320 322 326 334 336 330 323 326 328 327
135 144 182 194 225 254 260 264 290 332 276 245 220 216 239 245 250 252 240 223 223 231 239 241 237 234 231 228 227 229 231 234 235 232 231 232 233 235 235 235 236 235 233 233 233 234 235 237 238 239 239 240 238 234 231 230 228 228 229 231 234 237 239 242 244 247 250 254 257 258 258 260 261 260 261 266 272 279 281 283 287 290 292 293 293 292 297 305 310 313 310 315 321 317 318 320 319
116 127 171 209 226 250 272 268 290 341 183 260 249 230 248 249 252 248 206 194 222 226 229 236 237 236 235 234 233 233 236 238 238 236 233 233 234 235 236 236 236 235 233 231 231 231 233 235 236 238 238 239 237 233 230 230 229 229 231 234 238 243 245 247 250 254 260 264 264 261 258 259 261 261 259 261 264 266 269 274 279 281 282 284 284 285 289 292 300 308 302 303 308 306 307 310 314
118 114 133 232 232 270 275 268 301 328 184 275 285 235 254 258 256 243 196 205 236 235 233 237 238 238 237 236 236 235 237 238 238 238 237 234 235 235 236 236 236 235 233 232 232 231 231 232 234 235 235 236 234 231 229 230 231 233 237 240 243 248 250 252 256 258 261 262 263 262 259 255 258 258 257 263 264 260 266 274 276 276 279 285 288 285 282 280 291 305 303 300 298 298 301 305 313
158 146 152 230 239 339 268 279 344 321 223 284 294 252 263 265 262 253 219 224 241 246 246 248 244 243 243 240 238 237 237 239 239 239 238 236 235 234 235 236 236 235 233 232 230 230 230 229 230 232 232 233 232 230 229 231 234 238 242 244 246 248 248 249 251 252 253 253 254 258 258 256 258 258 255 259 259 258 273 281 280 285 289 292 290 284 282 280 292 299 294 290 294 295 299 301 304
190 183 183 200 202 289 289 337 338 309 287 284 305 297 274 254 256 262 235 225 240 247 246 249 247 246 247 244 242 241 240 241 242 242 241 239 237 236 236 237 237 235 234 232 230 230 230 229 229 229 231 231 230 229 230 232 236 239 240 242 243 242 242 242 243 244 246 248 252 259 261 258 257 257 258 262 261 257 263 266 269 281 287 288 286 282 288 297 293 289 276 279 290 292 294 295 293
208 210 197 177 178 251 304 339 351 338 305 290 312 273 267 279 261 255 246 220 237 243 236 240 244 244 244 243 244 244 243 244 245 246 246 245 243 241 240 239 237 237 235 233 233 232 232 232 230 230 230 231 231 230 231 232 235 237 239 240 240 239 239 238 239 242 246 252 260 266 264 256 252 252 255 264 264 259 258 258 257 264 270 273 275 276 282 282 275 270 272 275 284 290 291 288 287
222 204 172 168 184 219 301 324 340 296 276 294 328 238 266 306 267 242 244 238 240 238 230 237 241 241 239 242 246 246 244 244 245 247 247 247 246 243 242 240 238 238 236 234 234 234 234 234 233 232 231 232 232 232 231 232 234 237 239 241 242 243 243 242 245 249 255 263 265 263 261 255 251 247 243 247 250 259 269 262 257 261 262 261 269 277 281 278 271 269 273 272 277 289 295 292 292
220 169 150 169 193 204 293 308 269 238 291 293 269 205 268 276 252 240 232 251 257 249 242 243 242 241 240 243 248 247 245 244 244 245 245 246 247 245 242 240 240 240 238 235 234 233 233 234 234 234 234 233 233 233 233 233 234 236 239 241 243 244 245 247 251 254 258 262 259 258 258 255 253 249 245 244 244 256 263 257 258 262 258 257 265 270 270 269 266 265 269 272 279 289 296 296 299
201 148 141 163 168 156 287 286 257 281 348 280 256 171 232 260 264 305 114 234 253 249 242 245 243 241 240 243 247 248 246 244 245 245 243 244 246 247 246 243 241 242 240 238 236 234 233 233 234 235 235 234 234 235 235 236 236 238 241 243 244 245 246 248 250 253 253 254 254 253 252 253 253 250 248 251 246 242 246 248 253 254 249 251 254 256 262 267 267 270 276 283 289 293 297 303 314
146 122 102 108 100 83 115 149 210 312 283 253 242 193 219 261 265 241 218 232 239 246 247 242 243 242 240 242 245 247 246 245 245 245 243 243 246 249 249 245 242 240 240 240 237 234 232 232 233 234 234 234 235 236 237 238 238 240 242 243 244 244 246 247 248 250 250 251 251 248 247 250 251 251 250 251 249 241 238 242 246 244 245 249 253 259 267 269 272 279 285 289 296 305 322 346 352
113 103 80 69 57 52 65 75 89 81 262 246 224 199 217 263 251 203 221 221 205 221 245 247 247 244 243 243 243 245 245 245 246 245 244 244 245 247 246 244 241 238 238 238 237 233 231 231 231 232 234 234 234 235 236 238 239 240 242 243 244 244 245 247 248 249 249 250 250 246 246 246 247 253 253 249 254 249 239 240 243 242 247 253 259 266 268 268 273 279 287 300 332 353 2 9 7
83 87 94 88 44 35 37 14 85 190 254 251 205 178 201 244 237 200 245 243 207 212 220 229 240 242 243 243 244 244 246 248 249 249 249 246 246 246 243 241 240 237 236 235 235 235 232 230 230 231 232 232 233 234 235 237 238 240 241 242 244 244 245 247 247 247 248 250 248 245 244 243 245 249 248 252 258 248 231 233 237 237 241 245 247 252 250 253 260 270 340 359 7 10 14 14 7
94 106 124 126 124 92 169 211 146 224 246 300 68 137 199 246 244 244 263 267 249 236 222 219 229 237 242 244 246 248 249 250 252 252 252 250 247 245 241 239 238 237 237 237 236 236 234 231 230 230 230 231 232 232 233 235 237 238 240 241 242 242 243 244 244 244 246 246 245 243 240 238 243 244 244 254 257 238 226 232 233 231 228 221 216 209 201 189 169 354 6 16 21 22 17 6 358
142 135 152 158 146 165 200 198 192 245 252 310 34 123 245 266 257 236 241 241 241 243 239 237 238 242 247 249 249 249 247 248 250 250 250 249 246 242 239 237 237 237 238 238 236 235 235 233 231 230 230 230 231 232 232 234 235 237 238 238 239 239 239 238 238 239 241 243 242 243 240 235 239 243 247 255 250 235 236 236 229 224 208 192 182 172 178 186 198 246 47 40 24 19 3 354 351
159 133 136 158 155 178 196 190 209 243 262 284 313 144 216 237 251 238 236 245 249 248 248 248 248 247 250 253 250 247 247 248 249 249 248 247 242 237 235 235 236 237 237 238 236 233 234 233 232 231 230 229 230 230 232 233 234 236 235 235 235 235 235 236 236 236 237 240 240 241 241 237 236 238 243 248 243 237 240 232 221 209 187 177 175 175 191 201 201 195 161 38 7 359 351 351 349
172 130 121 224 186 154 153 189 211 226 270 268 226 222 223 219 274 280 272 271 262 249 247 248 248 247 249 255 254 250 251 252 251 249 248 245 238 232 231 231 232 234 234 236 235 233 233 233 232 231 230 230 230 231 232 233 235 236 235 234 234 233 233 234 237 238 235 234 236 238 240 238 236 236 237 238 238 238 236 224 209 193 180 179 183 193 204 201 198 202 210 317 345 345 347 349 348
154 171 186 199 156 105 74 224 9 56 244 249 191 240 278 302 279 286 310 292 274 254 249 245 244 246 249 251 250 249 252 254 255 250 245 241 235 230 228 227 229 232 234 236 235 234 233 233 232 231 231 231 231 232 234 235 236 236 236 235 234 234 233 233 237 238 231 227 228 232 236 237 238 238 233 231 234 234 224 210 196 187 186 190 197 204 202 199 205 217 244 308 336 343 346 345 344
150 192 182 130 87 76 90 226 345 73 239 267 199 232 260 254 263 288 292 258 272 262 247 244 246 249 250 248 246 248 250 252 254 249 237 231 228 226 226 226 228 231 232 233 233 233 233 233 233 232 233 233 234 235 236 237 238 238 238 236 234 234 233 233 236 235 227 224 223 225 229 234 236 235 228 225 227 220 208 196 189 189 195 199 203 204 201 205 215 232 267 313 335 341 342 340 338
157 177 156 133 183 202 159 175 214 193 232 278 280 251 244 217 242 280 211 224 243 251 243 243 249 247 246 246 246 248 247 246 251 245 232 225 222 222 223 224 227 228 230 231 231 233 233 233 233 233 234 235 236 238 239 239 240 239 239 237 234 233 232 231 231 229 225 223 222 222 225 230 231 227 223 219 215 205 196 191 191 196 200 202 203 202 206 215 222 242 282 324 334 337 337 333 332
61 116 166 166 191 191 176 172 170 172 218 268 291 297 259 229 224 222 230 232 231 241 241 231 237 239 243 248 250 251 248 244 246 240 228 221 218 219 220 223 226 228 231 233 234 235 235 234 235 234 234 235 236 238 239 240 241 239 238 235 232 231 230 227 226 225 224 221 221 223 225 226 224 219 215 210 204 197 192 192 196 200 201 201 203 205 211 219 230 263 307 327 328 331 327 325 327
175 170 189 196 175 137 156 190 165 130 181 233 266 281 268 251 212 201 225 237 229 233 241 241 249 251 253 255 256 256 249 239 234 229 223 219 219 221 223 227 231 233 235 236 236 236 236 235 236 235 235 236 236 237 238 239 239 238 236 232 231 228 224 221 220 222 221 218 219 222 222 219 214 210 208 203 197 193 192 195 199 200 200 201 205 210 216 224 244 283 310 318 319 321 321 322 325
183 183 193 194 185 143 155 212 197 116 181 199 209 271 267 255 223 208 219 230 230 237 245 252 265 269 268 266 260 255 248 237 229 223 221 221 223 227 232 235 238 238 238 237 236 236 235 235 236 236 236 236 236 237 237 237 236 234 232 229 227 224 218 215 216 217 216 216 219 221 216 211 206 204 201 197 194 193 194 197 198 199 202 205 210 215 222 235 255 280 297 308 312 315 318 321 323